Regional Weather Roundup
Issued by NWS

Home | Current Version | Previous Version | Graphics & Text | Print | Product List | Glossary On
Versions: 1 2 3 4 5 6 7 8 9 10 11 12 13 14 15 16 17 18 19 20 21 22 23 24 25 26 27 28 29 30 31 32 33 34 35 36 37 38 39 40 41 42 43 44 45 46 47 48 49 50
000
ASUS45 KBOU 290107
RWRCO

WEATHER ROUNDUP FOR COLORADO
NATIONAL WEATHER SERVICE DENVER/BOULDER CO
600 PM MST SUN DEC 28 2014

NOTE: "FAIR" INDICATES FEW OR NO CLOUDS BELOW 12000 FEET WITH NO
SIGNIFICANT WEATHER AND/OR OBSTRUCTIONS TO VISIBILITY.

COZ001>005-013-030-031-290200-
...NORTHWEST COLORADO...

CITY           SKY/WX    TMP DP  RH WIND       PRES   REMARKS
CRAIG          CLOUDY    23  18  81 W12       29.94S WCI  12
HAYDEN         CLOUDY    18  14  86 CALM      29.93S
MEEKER         LGT SNOW  23  19  85 W3        29.96R VSB 1
MOUNT WERNER   NOT AVBL
STEAMBOAT SPGS CLOUDY    14  12  90 CALM      29.92S
WALDEN         CLOUDY    18  10  73 SW9       29.85S WCI   6
$$

COZ006>008-011-290200-
...WEST CENTRAL VALLEYS...

CITY           SKY/WX    TMP DP  RH WIND       PRES   REMARKS
GRAND JUNCTION MOCLDY    23  15  71 N5        30.04R WCI  17
MONTROSE       CLOUDY    28  12  51 NW3       30.02S
EAGLE          CLOUDY    21  14  73 SE5       29.97F WCI  15
RIFLE          MOCLDY    20  12  71 S5        30.01S WCI  13
DELTA          MOCLDY    29  12  49 NW5       30.03S WCI  24
NUCLA          MOCLDY    32  10  40 CALM      30.06R
$$

COZ017>023-064>068-290200-
...SOUTHWEST COLORADO...

CITY           SKY/WX    TMP DP  RH WIND       PRES   REMARKS
DURANGO        PTCLDY    18  10  71 E5        30.05R WCI  11
CORTEZ         CLEAR     19  11  70 VRB3      30.05S
PAGOSA SPRINGS MOCLDY    12   8  83 CALM      30.03S
TELLURIDE      CLOUDY    23   9  55 W3        29.97S
WOLF CREEK PAS LGT SNOW   3   1  92 MISG      29.89F VSB 3/4
$$

COZ009-010-012-014-032>034-037-058>063-290200-
...CENTRAL COLORADO...

CITY           SKY/WX    TMP DP  RH WIND       PRES   REMARKS
ASPEN          CLOUDY    15  11  83 CALM      29.93S
BUENA VISTA    CLOUDY    20   7  58 CALM      29.90R
COPPER MTN     LGT SNOW   9   1  72 W15       29.79R VSB 1   WCI  -8
BERTHOUD PASS  NOT AVBL
COTTONWOOD PAS CLOUDY    19   9  63 N5        29.85R WCI  13
GUNNISON       MOCLDY     7 -24  23 CALM      30.01S
KREMMLING      LGT SNOW  19  14  79 CALM      29.91S
LEADVILLE      LGT SNOW  12   5  73 NW17G25   29.84R WCI  -5
MONARCH PASS   CLOUDY     5   1  85 W38       29.89F WCI -21
SALIDA         MOCLDY    27  10  47 W18       29.98S WCI  14
SUNLIGHT       CLOUDY   N/A N/A N/A CALM      29.85S
WILKERSON PASS PTCLDY     9   3  78 SW8       29.83S WCI  -4
$$

COZ069>075-290200-
...SAN LUIS VALLEY/SANGRE DE CRISTO MOUNTAINS...

CITY           SKY/WX    TMP DP  RH WIND       PRES   REMARKS
ALAMOSA        MOCLDY    10   2  69 N7        29.97R WCI  -1
LA VETA PASS   NOT AVBL
SAGUACHE       CLOUDY     5   0  78 CALM      29.98R
$$

COZ035-036-038>040-290200-
...NORTHERN COLORADO FRONT RANGE...

CITY           SKY/WX    TMP DP  RH WIND       PRES   REMARKS
DENVER INTL AP PTCLDY    18  14  84 VRB3      29.89R
DMNS CITY PARK   N/A     25  15  65 SE2       29.89R
AURORA         PTCLDY    22  15  73 E6        29.89R WCI  15
FRONT RANGE AP PTCLDY    23  19  86 CALM      29.90R
ERIE MUNI ARPT   N/A     12   9  87 MISG      29.90R
BOULDER MUN AP PTCLDY    18  10  73 SW5       29.90R WCI  11
CENTENNIAL     PTCLDY    24  11  57 CALM      29.87R
BROOMFIELD     MOCLDY    21  12  68 N16       29.86R WCI   7
FORT COLLINS   PTCLDY    12   5  73 CALM      29.92R
LONGMONT       PTCLDY    15  10  80 SE5       29.92S WCI   7
$$

COZ041-046-047-076>085-087-088-290200-
...PIKES PEAK/PALMER DIVIDE AND SOUTHERN FOOTHILLS...

CITY           SKY/WX    TMP DP  RH WIND       PRES   REMARKS
COLO. SPRINGS  PTCLDY    34   5  29 NW18      29.86R WCI  23
A. F. ACADEMY  CLEAR     32   4  31 N14G24    29.85R WCI  22
ELLICOTT       NOT AVBL
FALCON         CLEAR     29   6  37 N8        29.87R WCI  21
FORT CARSON    PTCLDY    32   7  36 NW6       29.85R WCI  26
LIMON          MOCLDY    20  16  84 N10       29.89R WCI   9
MONUMENT HILL  CLEAR     19  10  68 SE5       29.85S WCI  13
TRINIDAD       PTCLDY    24   8  50 NW9       29.90R WCI  14
$$

COZ042>045-048>051-090-091-290200-
...NORTHEAST COLORADO...

CITY           SKY/WX    TMP DP  RH WIND       PRES   REMARKS
GREELEY ARPT   MOCLDY    10   1  67 NW6       29.91R WCI   1
AKRON          CLOUDY    18   9  68 E5        29.90R WCI  11
BURLINGTON     PTCLDY    21  18  88 SE8       29.92R WCI  11
WRAY           PTCLDY    20  16  85 SE5       29.95S WCI  13
STERLING       CLOUDY    18  12  79 CALM      29.93S
HOLYOKE        PTCLDY    14  10  85 SE6       29.95R WCI   5
FORT MORGAN    CLOUDY    15  10  80 CALM      29.93R
$$

COZ086-089-092>099-290200-
...SOUTHEAST COLORADO...

CITY           SKY/WX    TMP DP  RH WIND       PRES   REMARKS
PUEBLO         CLEAR     37   8  30 W15       29.87R
LA JUNTA       CLEAR     27  20  75 VRB3      29.89R
LAMAR          CLEAR     27  17  66 CALM      29.89R
SPRINGFIELD      N/A     27  14  58 SE6       29.88R WCI  20
$$


USA.gov is the U.S. government's official web portal to all federal, state and local government web resources and services.